STARLINK-37591, 69033

Orbit data source: Space-Track

STARLINK-37591, 69033 is a payload satellite owned by SpaceX/Seattle (US) in SSO that was launched on Wed, 06 May 2026 UTC via an FALCON 9 launch vehicle from the Air Force Western Test Range (AFWTR). Payload-class satellites include a variety of spacecraft equipped with specific instruments for various scientific and technological missions. These include communications satellites like Starlink; space stations such as the ISS; scientific satellites like the Hubble; Earth observation satellites from companies like Planet Labs, Umbra, and HawkEye 360; GPS; miniature CubeSats for education and research; and military/defense satellites.

Loading next visibility...
Identifier
69033, 2026-101J
Orbit
SSO
Country
Flag of USUS
Related business
Manufacturer
SpaceX/Seattle
Mission
Operational spacecraft
Bus & Motor
STARLINK V2MO, Unknown motor
Mass
575 kg wet, ~530 kg dry
Launch date (UTC)
2026-05-06 (1 month ago)
Launch vehicle
FALCON 9
Launch site
Air Force Western Test Range (AFWTR)
Object type
Payload
Rocket body
Debris
Shape & HBR
Unknown shape, 14.5 m
Radar Cross Section
Large (>1 m²)

Expand to show TLE details & history
Last TLE update: 13 hours ago

TLE from 13 hours ago
0 STARLINK-37591
1 69033U 26101J   26168.52535400  .00014276  00000-0  44374-3 0  9993
2 69033  97.2840  23.3536 0001800  94.2421 265.9027 15.33441344  6623
Epoch: 2026-06-17T12:36Z
TLE epoch observation values (Epoch: 2026-06-17T12:36:30.585Z)
Latitude
-0.00008°
Longitude
-71.55561°
Altitude
468.754 km
Speed
7.632 km/s
True Right ascension
01h 33m 24s
True Declination
0° 00' 00"
Sunlit
Object was in daylight at epoch
Visualization orbit readout
Latitude
Unknown
Longitude
Unknown
Altitude
Unknown
Speed
Unknown
Apparent Right ascension
Unknown
Apparent Declination
Unknown
Sunlit
N/A
Visualization observer readout
Local Sidereal Time
12:24:04
Azimuth
Unknown
Elevation
Unknown
Doppler factor
Unknown
Orbital elements
Apogee altitude
463.728 km
Perigee altitude
461.265 km
Semi-major axis
6,840.634 km
Eccentricity
0.00018
Inclination
97.284°
RAAN
23.3536°
Arg. of periapsis
94.2421°
True anomaly
265.88213°
Mean anomaly
265.9027°
Eccentric anomaly
265.89241°
Mean motion
3.83618 °/min
Orbital period
93.84 mins
BSTAR
0.00044374
Loading maneuver chart data...
Computing Atmospheric mass density...
Loading historical data...
Loading historical data...
Loading historical data...
Loading historical data...
Loading historical data...
Loading historical data...
Loading historical data...

Documentation

Showing up to 5 results
|